Terug naar catalogus

STARLINK-3162

ActiefCommunicatieVLEO
NORAD 49411·PAYLOAD·🇺🇸 United States

Gelanceerd Nov 13, 2021 vanaf Cape Canaveral Space Force Station

Loading…

Volgende Passages (komende 24 uur)

TLE

VersSource: CelesTrak SupGP

Epoch: Sep 14, 2026, 13:50 UTC

1 49411C 21104D   26257.57687500 -.00006530  00000+0 -19291-3 0  2574
2 49411  53.1582  79.7587 0001385  93.4086 117.4046 15.34398552    14

Volg STARLINK-3162 in realtime met AllMySat

Download on the App Store